Кадая

Россия / Забайкальский край     50°56′01″N   119°17′29″E
темп.,
°C
ветер,
м/с
пор.,
м/с
влажн.,
%
обл.,
%
осадки,
мм/ч
давл.,
гПа
погр.,
м
12 мая, ср
ср1200:00+6ссв71094100 16.3 996905
03:00+6с71193100 19.1 9951039
06:00+4ссз71395100 5.5 996858
09:00+4сз51196100 7.7 998722
12:00+4сз41196100 4.3 1000744
15:00+5ссз61388100 5.7 1001966
18:00+8с51475100 0.3 10021127
21:00+5ссз228277 0.3 100527
13 мая, чт
чт1300:00+3зсз11856 0.0 100610
03:00+2зсз11841 0.0 100710
06:00+2ссз11830 0.0 100710
09:00+8ю116427 0.0 1007360
12:00+13з584143 0.0 10061807
15:00+15з593596 0.0 10042489
18:00+13сз4544100 0.0 10041135
21:00+8юв2379100 0.6 1005184
14 мая, пт
пт1400:00+4ссз4795100 5.8 1005435
03:00+2зсз2898100 13.1 1005360
06:00+2зюз239626 0.1 1005155
09:00+5з34785 0.1 1005518
12:00+9сз676252 0.4 10041457
15:00+9сз686157 1.3 10051598
18:00+10сз695110 0.3 10051763
21:00+6з37705 0.3 1006144
15 мая, сб
сб1500:00+4з33745 0.0 100736
03:00+5зсз512650 0.0 1007345
06:00+5сз512630 0.0 1007409
09:00+9сз711500 0.0 1008933
12:00+13сз79401 0.0 10081607
15:00+16сз68322 0.0 10072139
18:00+16зсз58300 0.0 10062060
21:00+11юз22420 0.0 100711
16 мая, вс
вс1600:00+8юз22513 0.0 100611
03:00+7зюз22515 0.0 100616
06:00+6зюз1154100 0.0 100611
09:00+10зсз710452 0.0 10051102
12:00+14зсз8113792 0.0 10042401
15:00+16сз9142679 0.0 10033321
18:00+16сз715291 0.0 10033043
21:00+10з22395 0.0 100511